Regional Weather Roundup
Issued by NWS

Home | Current Version | Previous Version | Text Only | Print | Product List | Glossary On
Versions: 1 2 3 4 5 6 7 8 9 10 11 12 13 14 15 16 17 18 19 20 21 22 23 24 25 26 27 28 29 30 31 32 33 34 35 36 37 38 39 40 41 42 43 44 45 46 47 48 49 50
000
ASPQ40 PGUM 281312
RWRPQ
WEATHER ROUNDUP FOR THE MARIANAS AND MICRONESIA
NATIONAL WEATHER SERVICE TIYAN GU
1100 PM CHST FRI NOV 28 2014

GUZ001>004-281400-
MARIANA ISLANDS-

CITY           SKY/WX    TMP DP  RH WIND       PRES   REMARKS
GUAM AIRPORT   CLOUDY    82  73  74 NE13      29.88S
ANDERSEN AFB   MOCLDY    81  73  78 NE20G29   29.88F
ROTA AIRPORT   NOT AVBL
TINIAN AP      NOT AVBL
SAIPAN AP      MOCLDY    81  75  83 NE17      29.88F

$$

PMZ161-281400-
REPUBLIC OF PALAU-

CITY           SKY/WX    TMP DP  RH WIND       PRES   REMARKS
KOROR AP       CLOUDY    81  79  94 NE9       29.77S
KOROR WSO      CLOUDY    81  77  89 NE6       29.76R

$$

PMZ171>174-281400-
FEDERATED STATES OF MICRONESIA-

CITY           SKY/WX    TMP DP  RH WIND       PRES   REMARKS
YAP AIRPORT    CLOUDY    82  79  89 NE8       29.79S HX  93
CHUUK AP       CLOUDY    84  77  79 E9        29.75F HX  94
POHNPEI AP     NOT AVBL
POHNPEI WSO    CLOUDY    82  79  89 NE9       29.74S HX  93
KOSRAE AP      NOT AVBL

$$

PMZ181-281400-
REPUBLIC OF THE MARSHALL ISLANDS-

CITY           SKY/WX    TMP DP  RH WIND       PRES   REMARKS
KWAJALEIN AP   CLEAR     82  75  78 NE17      29.73R
MAJURO AP      NOT AVBL
MAJURO WSO     CLOUDY    84  77  79 E13       29.70S HX  94

$$




USA.gov is the U.S. government's official web portal to all federal, state and local government web resources and services.